Simultaneous Nadir Overpasses (SNOs) Predictions

Prediction of SNOs between NOAA-19 and METOP-C Satellite Orbit:

Table of predicted SNOs for the next 14.0 days since TLE Epoch: 5/25/2019
Index Date (NOAA-19) Time (NOAA-19) Lat,Lon (NOAA-19) SZA (NOAA-19 ) Date (METOP-C) Time (METOP-C) Lat,Lon (METOP-C) SZA (METOP-C ) Distance(km) Time Diff (sec)
1 05/29/2019 16:37:24 -79.25, 126.24 121.99 05/29/2019 16:38:31 -79.23, 126.21 122.00 2.47 67
2 05/29/2019 17:28:23 79.22, -66.28 58.00 05/29/2019 17:29:10 79.24, -66.37 58.02 2.52 47
3 05/29/2019 18:19:24 -79.22, 100.97 122.02 05/29/2019 18:19:52 -79.25, 101.03 121.98 3.18 28
4 05/29/2019 19:10:24 79.23, -91.82 57.99 05/29/2019 19:10:32 79.22, -91.81 57.99 0.45 8
5 05/29/2019 20:01:25 -79.22, 75.43 122.02 05/29/2019 20:01:14 -79.23, 75.59 122.01 3.46 11
6 05/29/2019 20:52:24 79.20,-117.10 57.96 05/29/2019 20:51:54 79.21,-117.25 57.96 3.32 30
7 05/29/2019 21:43:25 -79.20, 50.16 122.05 05/29/2019 21:42:36 -79.22, 50.15 122.04 2.42 49
8 05/29/2019 22:34:25 79.20,-142.64 57.96 05/29/2019 22:33:16 79.20,-142.69 57.93 1.31 69




NCC Satellite Simultaneous Nadir Overpasses (SNOs) Prediction Service
